Blue Bell, PA

2:58 PM EST on February 14, 2016 (GMT -0500)
Philadelphia Wings Airport

Weather History for KLOM - February, 2012

Change the Weather History Date:

Sunday, February 12, 2012

  Actual Average (KPNE) Record (KPNE)
Temperature  
Mean Temperature 26 °F -  
Max Temperature 32 °F 41 °F 69 °F (1999)
Min Temperature 19 °F 24 °F 7 °F (2014)
Degree Days  
Heating Degree Days 40    
Moisture  
Dew Point 13 °F    
Average Humidity 56    
Maximum Humidity 68    
Minimum Humidity 48    
Precipitation  
Precipitation 0.00 in - - ()
Sea Level Pressure  
Sea Level Pressure 29.89 in    
Wind  
Wind Speed 12 mph (WNW)    
Max Wind Speed 17 mph    
Max Gust Speed 32 mph    
Visibility 10 miles    
Events      
Averages and records for this station are not official NWS values.
T = Trace of Precipitation, MM = Missing Value Source: NWS Daily Summary

Daily Weather History Graph

Daily Weather History Graph

Search for Another Location

Airport or City:

Trip Planner

Search our weather history database for the weather conditions in past years. The results will help you decide how hot, cold, wet, or windy it might be!

Date:

Astronomy

Feb. 12, 2012 Rise Set
Actual Time 6:58 AM EST 5:32 PM EST
Civil Twilight 6:30 AM EST 6:00 PM EST
Nautical Twilight 5:58 AM EST 6:32 PM EST
Astronomical Twilight 5:27 AM EST 7:04 PM EST
Moon 11:28 PM EST (2/12) 9:15 AM EST (2/12)
Length of Visible Light 11h 30m
Length of Day
10h 34m
Waning Gibbous, 72% of the Moon is Illuminated
Feb 12
Waning Gibbous
Feb 14
Last Quarter
Feb 21
New
Feb 29
First Quarter
Mar 8
Full

Hourly Weather History & Observations

Time (EST) Temp. Windchill Dew Point Humidity Pressure Visibility Wind Dir Wind Speed Gust Speed Precip Events Conditions
12:15 AM 26.6 °F 15.2 °F 15.8 °F 64% 29.77 in 7.0 mi NNW 13.8 mph 32.2 mph N/A   Clear
12:35 AM 24.8 °F 15.3 °F 12.2 °F 59% 29.78 in 10.0 mi NNW 9.2 mph 24.2 mph N/A   Clear
12:55 AM 24.8 °F 13.4 °F 8.6 °F 50% 29.79 in 10.0 mi NNW 12.7 mph 27.6 mph N/A   Clear
1:15 AM 23.0 °F 10.6 °F 8.6 °F 54% 29.80 in 10.0 mi NNW 13.8 mph 20.7 mph N/A   Clear
1:35 AM 23.0 °F 11.1 °F 10.4 °F 59% 29.81 in 10.0 mi NNW 12.7 mph 21.9 mph N/A   Clear
1:55 AM 23.0 °F 12.4 °F 8.6 °F 54% 29.82 in 10.0 mi NNW 10.4 mph 21.9 mph N/A   Clear
2:15 AM 23.0 °F 10.1 °F 10.4 °F 59% 29.83 in 10.0 mi NNW 15.0 mph 25.3 mph N/A   Clear
2:35 AM 23.0 °F 11.1 °F 10.4 °F 59% 29.84 in 10.0 mi NW 12.7 mph 24.2 mph N/A   Clear
2:55 AM 23.0 °F 10.6 °F 10.4 °F 59% 29.85 in 10.0 mi NNW 13.8 mph 17.3 mph N/A   Clear
3:15 AM 23.0 °F 13.1 °F 10.4 °F 59% 29.85 in 10.0 mi NW 9.2 mph - N/A   Clear
3:35 AM 23.0 °F 13.9 °F 10.4 °F 59% 29.86 in 10.0 mi NW 8.1 mph 20.7 mph N/A   Clear
3:55 AM 21.2 °F 10.1 °F 10.4 °F 63% 29.87 in 10.0 mi WNW 10.4 mph 19.6 mph N/A   Clear
4:15 AM 21.2 °F 9.5 °F 8.6 °F 58% 29.87 in 10.0 mi NW 11.5 mph 20.7 mph N/A   Clear
4:35 AM 21.2 °F 10.1 °F 8.6 °F 58% 29.88 in 10.0 mi NW 10.4 mph 20.7 mph N/A   Clear
4:55 AM 19.4 °F 7.9 °F 8.6 °F 63% 29.89 in 10.0 mi West 10.4 mph 16.1 mph N/A   Clear
5:15 AM 19.4 °F 10.4 °F 8.6 °F 63% 29.89 in 10.0 mi WNW 6.9 mph 17.3 mph N/A   Clear
5:35 AM 19.4 °F 7.9 °F 8.6 °F 63% 29.90 in 10.0 mi WNW 10.4 mph - N/A   Clear
5:55 AM 19.4 °F 11.5 °F 8.6 °F 63% 29.90 in 10.0 mi WNW 5.8 mph - N/A   Clear
6:15 AM 19.4 °F 10.4 °F 8.6 °F 63% 29.90 in 10.0 mi WNW 6.9 mph - N/A   Clear
6:35 AM 19.4 °F 11.5 °F 10.4 °F 68% 29.90 in 10.0 mi WNW 5.8 mph - N/A   Clear
6:55 AM 19.4 °F 9.5 °F 10.4 °F 68% 29.91 in 10.0 mi West 8.1 mph - N/A   Clear
7:15 AM 19.4 °F 10.4 °F 10.4 °F 68% 29.92 in 10.0 mi West 6.9 mph - N/A   Clear
7:35 AM 21.2 °F 13.6 °F 10.4 °F 63% 29.92 in 10.0 mi WNW 5.8 mph - N/A   Clear
7:55 AM 21.2 °F 10.9 °F 12.2 °F 68% 29.93 in 10.0 mi WNW 9.2 mph - N/A   Clear
8:15 AM 23.0 °F 15.8 °F 12.2 °F 63% 29.93 in 10.0 mi WNW 5.8 mph - N/A   Clear
8:35 AM 23.0 °F 13.1 °F 14.0 °F 68% 29.93 in 10.0 mi West 9.2 mph - N/A   Clear
8:55 AM 26.6 °F 16.8 °F 14.0 °F 59% 29.93 in 10.0 mi WNW 10.4 mph 17.3 mph N/A   Clear
9:15 AM 26.6 °F 15.7 °F 14.0 °F 59% 29.93 in 10.0 mi WNW 12.7 mph 16.1 mph N/A   Clear
9:35 AM 28.4 °F 17.5 °F 14.0 °F 55% 29.92 in 10.0 mi WNW 13.8 mph 26.5 mph N/A   Clear
9:55 AM 28.4 °F 16.6 °F 14.0 °F 55% 29.92 in 10.0 mi WNW 16.1 mph 25.3 mph N/A   Clear
10:15 AM 28.4 °F 18.0 °F 14.0 °F 55% 29.92 in 10.0 mi WNW 12.7 mph 28.8 mph N/A   Clear
10:35 AM 30.2 °F 19.8 °F 14.0 °F 51% 29.91 in 10.0 mi WNW 13.8 mph 28.8 mph N/A   Clear
10:55 AM 28.4 °F 18.5 °F 14.0 °F 55% 29.91 in 10.0 mi WNW 11.5 mph 20.7 mph N/A   Clear
11:15 AM 28.4 °F 16.6 °F 14.0 °F 55% 29.92 in 10.0 mi WNW 16.1 mph 26.5 mph N/A   Clear
11:35 AM 28.4 °F 16.6 °F 14.0 °F 55% 29.92 in 10.0 mi WNW 16.1 mph 26.5 mph N/A   Scattered Clouds
11:55 AM 30.2 °F 20.8 °F 14.0 °F 51% 29.90 in 10.0 mi WNW 11.5 mph 20.7 mph N/A   Scattered Clouds
12:15 PM 30.2 °F 20.2 °F 14.0 °F 51% 29.90 in 10.0 mi WNW 12.7 mph 27.6 mph N/A   Clear
12:35 PM 30.2 °F 20.2 °F 14.0 °F 51% 29.90 in 10.0 mi West 12.7 mph 21.9 mph N/A   Scattered Clouds
12:55 PM 32.0 °F 21.6 °F 14.0 °F 48% 29.89 in 10.0 mi West 15.0 mph 27.6 mph N/A   Scattered Clouds
1:15 PM 32.0 °F 22.1 °F 14.0 °F 48% 29.89 in 10.0 mi WNW 13.8 mph 26.5 mph N/A   Mostly Cloudy
1:35 PM 32.0 °F 22.1 °F 15.8 °F 51% 29.88 in 10.0 mi WNW 13.8 mph 20.7 mph N/A   Mostly Cloudy
1:55 PM 32.0 °F 22.1 °F 14.0 °F 48% 29.88 in 10.0 mi West 13.8 mph 23.0 mph N/A   Mostly Cloudy
2:15 PM 32.0 °F 22.5 °F 15.8 °F 51% 29.88 in 10.0 mi West 12.7 mph 20.7 mph N/A   Mostly Cloudy
2:35 PM 32.0 °F 21.2 °F 14.0 °F 48% 29.88 in 10.0 mi West 16.1 mph 29.9 mph N/A   Scattered Clouds
2:55 PM 32.0 °F 21.2 °F 14.0 °F 48% 29.88 in 10.0 mi West 16.1 mph 25.3 mph N/A   Scattered Clouds
3:15 PM 32.0 °F 20.8 °F 15.8 °F 51% 29.88 in 10.0 mi West 17.3 mph 25.3 mph N/A   Scattered Clouds
3:35 PM 32.0 °F 22.1 °F 15.8 °F 51% 29.88 in 10.0 mi WNW 13.8 mph 27.6 mph N/A   Scattered Clouds
3:55 PM 32.0 °F 22.1 °F 15.8 °F 51% 29.88 in 10.0 mi WNW 13.8 mph 25.3 mph N/A   Scattered Clouds
4:15 PM 32.0 °F 21.2 °F 14.0 °F 48% 29.88 in 10.0 mi WNW 16.1 mph 27.6 mph N/A   Scattered Clouds
4:35 PM 32.0 °F 23.0 °F 14.0 °F 48% 29.88 in 10.0 mi West 11.5 mph 21.9 mph N/A   Scattered Clouds
4:55 PM 32.0 °F 23.6 °F 14.0 °F 48% 29.89 in 10.0 mi West 10.4 mph 21.9 mph N/A   Scattered Clouds
5:15 PM 32.0 °F 22.1 °F 15.8 °F 51% 29.90 in 10.0 mi West 13.8 mph 24.2 mph N/A   Scattered Clouds
5:35 PM 30.2 °F 21.9 °F 15.8 °F 55% 29.91 in 10.0 mi West 9.2 mph 19.6 mph N/A   Mostly Cloudy
5:55 PM 30.2 °F 19.8 °F 15.8 °F 55% 29.92 in 10.0 mi West 13.8 mph 25.3 mph N/A   Scattered Clouds
6:15 PM 30.2 °F 20.2 °F 15.8 °F 55% 29.93 in 10.0 mi West 12.7 mph 24.2 mph N/A   Clear
6:35 PM 30.2 °F 21.9 °F 15.8 °F 55% 29.94 in 10.0 mi West 9.2 mph - N/A   Scattered Clouds
6:55 PM 30.2 °F 21.3 °F 17.6 °F 60% 29.96 in 10.0 mi West 10.4 mph 20.7 mph N/A   Mostly Cloudy
7:15 PM 30.2 °F 21.9 °F 17.6 °F 60% 29.96 in 10.0 mi West 9.2 mph - N/A   Overcast
7:35 PM 30.2 °F 21.3 °F 17.6 °F 60% 29.97 in 10.0 mi West 10.4 mph 20.7 mph N/A   Overcast
7:55 PM 30.2 °F 21.3 °F 17.6 °F 60% 29.98 in 10.0 mi West 10.4 mph 18.4 mph N/A   Mostly Cloudy
8:15 PM 30.2 °F 22.6 °F 19.4 °F 64% 29.98 in 10.0 mi West 8.1 mph 18.4 mph N/A   Overcast
8:35 PM 30.2 °F 21.9 °F 19.4 °F 64% 29.98 in 10.0 mi WNW 9.2 mph 18.4 mph N/A   Scattered Clouds
8:55 PM 30.2 °F 23.4 °F 19.4 °F 64% 30.00 in 10.0 mi West 6.9 mph - N/A   Clear
9:15 PM 30.2 °F 24.3 °F 19.4 °F 64% 30.00 in 10.0 mi West 5.8 mph - N/A   Scattered Clouds
9:35 PM 30.2 °F 26.7 °F 19.4 °F 64% 30.00 in 10.0 mi West 3.5 mph - N/A   Scattered Clouds
9:55 PM 28.4 °F 24.6 °F 19.4 °F 69% 30.01 in 10.0 mi West 3.5 mph - N/A   Mostly Cloudy
10:15 PM 28.4 °F 23.3 °F 19.4 °F 69% 30.01 in 10.0 mi West 4.6 mph - N/A   Mostly Cloudy
10:35 PM 30.2 °F 24.3 °F 19.4 °F 64% 30.01 in 10.0 mi West 5.8 mph - N/A   Mostly Cloudy
10:55 PM 30.2 °F 24.3 °F 19.4 °F 64% 30.02 in 10.0 mi West 5.8 mph - N/A   Overcast
11:15 PM 30.2 °F 22.6 °F 17.6 °F 60% 30.02 in 10.0 mi WNW 8.1 mph - N/A   Overcast
11:35 PM 30.2 °F 21.3 °F 17.6 °F 60% 30.02 in 10.0 mi West 10.4 mph 18.4 mph N/A   Overcast
11:55 PM 30.2 °F 22.6 °F 19.4 °F 64% 30.03 in 10.0 mi West 8.1 mph 18.4 mph N/A   Overcast